Location: Newark
(25.0000°N, 73.5000°E)
Time: 01:14:50
(UTC+00:00)

NOAA 15 - Pass Details

Date: 21 February 2020
Orbit: 797 x 813 km, 98.7° (Epoch: 28 March)

Event Time Altitude Azimuth Distance (km) Brightness Sun altitude
Rises 14:29:57 0° 187° (S) 3,311 7.9 -20.3°
Reaches altitude 10° 14:32:28 10° 197° (SSW) 2,385 7.3 -20.9°
Maximum altitude 14:37:13 34° 261° (W) 1,312 6.3 -21.9°
Drops below altitude 10° 14:42:00 10° 325° (NW) 2,400 7.5 -23.0°
Sets 14:44:33 0° 335° (NNW) 3,335 8.1 -23.6°
